FW2442 Weather Reports


Display with metric or nautical units.
time (UTC)temp
F
wind
direction
speed
MPH
gust
MPH
rain 1hr
in
rain 24hr
in
rain mn
in
humidity
%
barometer
mb
20260905174521 62 340 15.0 23.0 0.21 0.21 0.21 94 1015.2
20260905173519 63 326 14.0 28.0 0.21 0.21 0.21 94 1015.1
20260905172521 63 336 21.0 34.0 0.21 0.21 0.21 92 1014.8
20260905171520 64 314 28.0 43.0 0.20 0.20 0.20 91 1014.4
20260905170522 65 306 41.0 71.0 0.16 0.16 0.16 85 1014.5
20260905165540 67 325 23.0 42.0 0.00 0.00 0.00 78 1015.2
20260905164519 69 324 32.0 48.0 0.00 0.00 0.00 69 1014.7
20260905163540 70 321 17.0 33.0 0.00 0.00 0.00 61 1014.1
20260905162522 71 342 17.0 30.0 0.00 0.00 0.00 60 1013.8
20260905161520 71 355 23.0 43.0 0.00 0.00 0.00 60 1013.5
20260905160520 71 340 23.0 46.0 0.00 0.00 0.00 59 1013.6
20260905155519 71 333 31.0 44.0 0.00 0.00 0.00 58 1013.3
20260905154541 72 340 33.0 47.0 0.00 0.00 0.00 57 1013.4
20260905153519 72 329 30.0 46.0 0.00 0.00 0.00 56 1013.4
20260905152540 73 320 38.0 54.0 0.00 0.00 0.00 55 1013.3
20260905151520 73 333 28.0 38.0 0.00 0.00 0.00 56 1013.0
20260905150522 73 327 29.0 52.0 0.00 0.00 0.00 55 1012.8
20260905145520 74 324 30.0 63.0 0.00 0.00 0.00 56 1012.6
20260905144522 75 332 36.0 54.0 0.00 0.00 0.00 56 1012.3
20260905143520 74 329 34.0 49.0 0.00 0.00 0.00 59 1012.1
20260905142522 76 329 33.0 47.0 0.00 0.00 0.00 57 1012.1
20260905141520 78 326 35.0 46.0 0.00 0.00 0.00 52 1012.2
20260905140521 81 320 37.0 54.0 0.00 0.00 0.00 50 1011.7
20260905135519 84 328 34.0 54.0 0.00 0.00 0.00 49 1011.2
20260905134521 86 332 36.0 63.0 0.00 0.00 0.00 46 1011.0
20260905133520 89 293 15.0 25.0 0.00 0.00 0.00 41 1010.5
20260905132522 90 277 20.0 28.0 0.00 0.00 0.00 39 1010.3
20260905131520 91 261 20.0 28.0 0.00 0.00 0.00 38 1010.2
20260905130522 91 274 18.0 26.0 0.00 0.00 0.00 39 1010.2
20260905125520 89 259 14.0 20.0 0.00 0.00 0.00 39 1010.4
20260905124521 89 245 17.0 30.0 0.00 0.00 0.00 39 1010.5
20260905123519 91 245 25.0 36.0 0.00 0.00 0.00 38 1010.5
20260905122541 91 225 26.0 33.0 0.00 0.00 0.00 38 1010.7
20260905121519 90 223 27.0 38.0 0.00 0.00 0.00 38 1010.7
20260905120521 92 214 22.0 34.0 0.00 0.00 0.00 37 1010.9
20260905115519 91 221 20.0 28.0 0.00 0.00 0.00 39 1010.9
20260905114520 90 212 12.0 25.0 0.00 0.00 0.00 40 1011.0
20260905113516 89 214 15.0 23.0 0.00 0.00 0.00 42 1011.1
20260905112521 87 198 13.0 17.0 0.00 0.00 0.00 43 1011.2
20260905111520 88 215 17.0 26.0 0.00 0.00 0.00 42 1011.3
20260905110542 87 211 17.0 22.0 0.00 0.00 0.00 44 1011.2
20260905105519 87 208 26.0 35.0 0.00 0.00 0.00 42 1011.1
20260905104541 87 190 18.0 28.0 0.00 0.00 0.00 43 1011.2
20260905103520 87 217 23.0 31.0 0.00 0.00 0.00 43 1011.3
20260905102517 87 229 24.0 31.0 0.00 0.00 0.00 44 1011.4
20260905101520 86 220 26.0 44.0 0.00 0.00 0.00 43 1011.6
20260905100516 87 200 36.0 48.0 0.00 0.00 0.00 42 1011.5
20260905095521 87 214 27.0 38.0 0.00 0.00 0.00 42 1011.6
20260905094541 88 232 23.0 32.0 0.00 0.00 0.00 42 1011.6
20260905093519 88 219 28.0 42.0 0.00 0.00 0.00 42 1011.7
20260905092520 86 198 26.0 39.0 0.00 0.00 0.00 43 1011.7
20260905085536 86 202 29.0 45.0 0.00 0.00 0.00 45 1012.1
20260905084518 85 202 29.0 48.0 0.00 0.00 0.00 46 1012.1
20260905083537 84 198 34.0 50.0 0.00 0.00 0.00 46 1012.2
20260905082522 83 204 30.0 36.0 0.00 0.00 0.00 48 1012.3
20260905081519 83 200 28.0 38.0 0.00 0.00 0.00 48 1012.4
20260905080517 82 196 24.0 34.0 0.00 0.00 0.00 50 1012.5
20260905075520 81 206 30.0 43.0 0.00 0.00 0.00 50 1012.7
20260905074517 81 199 32.0 44.0 0.00 0.00 0.00 50 1012.7
20260905073516 80 204 32.0 41.0 0.00 0.00 0.00 51 1012.8
20260905072517 80 188 31.0 42.0 0.00 0.00 0.00 51 1012.9
20260905071537 79 204 28.0 43.0 0.00 0.00 0.00 53 1012.9
20260905070518 78 204 28.0 36.0 0.00 0.00 0.00 54 1012.9
20260905065518 78 188 27.0 37.0 0.00 0.00 0.00 55 1013.0
20260905064520 77 199 28.0 42.0 0.00 0.00 0.00 56 1013.1
20260905063516 75 197 31.0 37.0 0.00 0.00 0.00 58 1013.1
20260905062540 75 199 27.0 40.0 0.00 0.00 0.00 60 1013.0
20260905061516 74 210 26.0 33.0 0.00 0.00 0.00 61 1013.1
20260905060536 73 197 25.0 33.0 0.00 0.00 0.00 61 1013.1
20260905055537 72 201 14.0 22.0 0.00 0.00 0.00 62 1013.1
20260905054516 71 202 10.0 18.0 0.00 0.00 0.00 63 1013.2
20260905053517 71 188 12.0 17.0 0.00 0.00 0.00 64 1013.2
20260905052521 71 166 9.0 15.0 0.00 0.00 0.00 64 1013.2
20260905051517 70 161 6.0 10.0 0.00 0.00 0.00 65 1013.1
20260905050517 69 161 10.0 13.0 0.00 0.00 0.00 65 1013.1
20260905045517 68 190 11.0 17.0 0.00 0.00 0.00 65 1013.2
20260905044517 68 181 11.0 17.0 0.00 0.00 0.00 66 1013.1
20260905043517 67 180 16.0 20.0 0.00 0.00 0.00 67 1013.2
20260905042517 66 178 14.0 17.0 0.00 0.00 0.00 67 1013.1
20260905041559 66 189 9.0 12.0 0.00 0.00 0.00 69 1013.0
20260905040517 65 186 5.0 7.0 0.00 0.00 0.00 70 1012.9
20260905035519 64 167 5.0 9.0 0.00 0.00 0.00 72 1012.9
20260905034539 64 116 2.0 6.0 0.00 0.00 0.00 72 1012.8
20260905033519 64 175 7.0 9.0 0.00 0.00 0.00 72 1012.8
20260905032537 64 181 7.0 10.0 0.00 0.00 0.00 72 1012.9
20260905031516 64 208 4.0 7.0 0.00 0.00 0.00 71 1012.9
20260905030537 65 262 6.0 9.0 0.00 0.00 0.00 71 1012.9
20260905025517 64 212 8.0 11.0 0.00 0.00 0.00 72 1013.0
20260905024517 64 238 3.0 6.0 0.00 0.00 0.00 72 1013.0
20260905023557 64 245 4.0 9.0 0.00 0.00 0.00 73 1013.1
20260905022517 64 178 9.0 12.0 0.00 0.00 0.00 73 1013.0
20260905021537 64 174 7.0 11.0 0.00 0.00 0.00 74 1013.0
20260905020521 64 167 5.0 9.0 0.00 0.00 0.00 74 1013.0
20260905015519 64 167 6.0 11.0 0.00 0.00 0.00 74 1013.0
20260905014517 64 198 7.0 10.0 0.00 0.00 0.00 74 1013.0
20260905013517 64 185 11.0 15.0 0.00 0.00 0.00 76 1013.1
20260905012517 64 179 7.0 11.0 0.00 0.00 0.00 77 1013.2
20260905011518 64 179 5.0 7.0 0.00 0.00 0.00 77 1013.1
20260905010518 64 166 7.0 11.0 0.00 0.00 0.00 77 1013.2
20260905005518 65 151 6.0 14.0 0.00 0.00 0.00 76 1013.2
20260905004516 65 150 6.0 7.0 0.00 0.00 0.00 76 1013.2
20260905003537 65 172 7.0 9.0 0.00 0.00 0.00 76 1013.2
20260905002521 65 184 7.0 11.0 0.00 0.00 0.00 76 1013.3
20260905001537 65 207 3.0 5.0 0.00 0.00 0.00 77 1013.3
20260905000539 65 183 4.0 5.0 0.00 0.00 0.00 77 1013.3
20260904235517 65 199 1.0 4.0 0.00 0.00 0.00 77 1013.4
20260904234517 65 179 6.0 7.0 0.00 0.00 0.00 77 1013.3
20260904233517 66 219 6.0 9.0 0.00 0.00 0.00 76 1013.2
20260904232521 66 253 3.0 5.0 0.00 0.00 0.00 76 1013.1
20260904231517 67 201 3.0 6.0 0.00 0.00 0.00 75 1013.2
20260904230517 67 209 6.0 9.0 0.00 0.00 0.00 74 1013.4
20260904225518 67 268 3.0 6.0 0.00 0.00 0.00 74 1013.5
20260904224537 67 278 5.0 7.0 0.00 0.00 0.00 74 1013.5
20260904223517 67 239 6.0 8.0 0.00 0.00 0.00 74 1013.5
20260904222522 68 251 4.0 6.0 0.00 0.00 0.00 73 1013.5
20260904221538 69 223 9.0 11.0 0.00 0.00 0.00 71 1013.3
20260904220518 69 252 7.0 9.0 0.00 0.00 0.00 72 1013.5
20260904215518 68 250 6.0 8.0 0.00 0.00 0.00 72 1013.5
20260904214517 68 265 5.0 7.0 0.00 0.00 0.00 72 1013.6
20260904213518 68 258 6.0 8.0 0.00 0.00 0.00 72 1013.7
20260904212521 69 228 8.0 10.0 0.00 0.00 0.00 71 1013.6
20260904211518 69 227 5.0 8.0 0.00 0.00 0.00 71 1013.7
20260904210517 69 189 6.0 9.0 0.00 0.00 0.00 70 1013.6
20260904205518 70 184 5.0 7.0 0.00 0.00 0.00 69 1013.5
20260904204517 71 151 5.0 7.0 0.00 0.00 0.00 67 1013.5
20260904203517 71 172 3.0 7.0 0.00 0.00 0.00 67 1013.6
20260904202517 71 240 1.0 5.0 0.00 0.00 0.00 66 1013.6
20260904201538 71 28 0.0 3.0 0.00 0.00 0.00 66 1013.5
20260904200538 71 245 1.0 7.0 0.00 0.00 0.00 66 1013.5
20260904195540 71 0.0 0.0 0.00 0.00 0.00 66 1013.5
20260904194518 72 157 1.0 4.0 0.00 0.00 0.00 65 1013.5
20260904193518 72 164 5.0 7.0 0.00 0.00 0.00 64 1013.5
20260904192519 72 164 4.0 5.0 0.00 0.00 0.00 63 1013.5
20260904191518 72 207 1.0 4.0 0.00 0.00 0.00 63 1013.4
20260904190519 73 166 1.0 3.0 0.00 0.00 0.00 63 1013.6
20260904185537 72 155 5.0 9.0 0.00 0.00 0.00 63 1013.6
20260904184518 72 145 1.0 5.0 0.00 0.00 0.00 66 1013.7
20260904183516 72 0.0 0.0 0.00 0.00 0.00 66 1013.7
20260904182517 73 251 0.0 3.0 0.00 0.00 0.00 65 1013.7
20260904181517 73 127 3.0 6.0 0.00 0.00 0.00 65 1013.7
20260904180522 73 26 1.0 3.0 0.00 0.00 0.00 65 1013.6
20260904175517 73 115 5.0 7.0 0.00 0.00 0.00 65 1013.6